• în România
  • Lista ţărilor
  • Pe 7 zile
  • Temperatura apei
  • Hartă satelitară
  • Meteo pe hartă
  • Widget-uri
  • user-avatar
    Intrare

    Meteo pe oră la Natitingou

    Astăzi, 17 Decembrie, Duminică

    Timp Temperatura Precipitaţii Vânt Presiune Umiditate
    00:00 +28°C° 0 mm 1 m/s 717 mmHg 16%
    01:00 +27°C° 0 mm 1 m/s 717 mmHg 16%
    02:00 +27°C° 0 mm 1 m/s 716 mmHg 16%
    03:00 +26°C° 0 mm 1 m/s 716 mmHg 17%
    04:00 +25°C° 0 mm 1 m/s 716 mmHg 17%
    05:00 +25°C° 0 mm 1 m/s 716 mmHg 18%
    06:00 +24°C° 0 mm 1 m/s 717 mmHg 18%
    07:00 +27°C° 0 mm 1 m/s 717 mmHg 16%
    08:00 +30°C° 0 mm 1 m/s 718 mmHg 13%
    09:00 +32°C° 0 mm 2 m/s 719 mmHg 11%
    10:00 +35°C° 0 mm 1 m/s 718 mmHg 10%
    11:00 +37°C° 0 mm 1 m/s 718 mmHg 9%
    12:00 +40°C° 0 mm 1 m/s 718 mmHg 7%
    13:00 +40°C° 0 mm 1 m/s 717 mmHg 8%
    14:00 +40°C° 0 mm 1 m/s 717 mmHg 8%
    15:00 +40°C° 0 mm 1 m/s 716 mmHg 8%
    16:00 +37°C° 0 mm 1 m/s 716 mmHg 9%
    17:00 +35°C° 0 mm 1 m/s 716 mmHg 10%
    18:00 +30°C° 0 mm 0 m/s 715 mmHg 11%
    19:00 +29°C° 0 mm 0 m/s 716 mmHg 12%
    20:00 +28°C° 0 mm 0 m/s 716 mmHg 12%
    21:00 +28°C° 0 mm 0 m/s 717 mmHg 13%
    22:00 +29°C° 0 mm 1 m/s 717 mmHg 13%
    23:00 +28°C° 0 mm 1 m/s 717 mmHg 14%

    Mâine, 18 Decembrie, Luni

    Timp Temperatura Precipitaţii Vânt Presiune Umiditate
    00:00 +28°C° 0 mm 1 m/s 717 mmHg 14%
    01:00 +27°C° 0 mm 1 m/s 716 mmHg 15%
    02:00 +27°C° 0 mm 1 m/s 716 mmHg 15%
    03:00 +26°C° 0 mm 1 m/s 716 mmHg 15%
    04:00 +26°C° 0 mm 1 m/s 716 mmHg 15%
    05:00 +25°C° 0 mm 1 m/s 716 mmHg 16%
    06:00 +25°C° 0 mm 1 m/s 716 mmHg 16%
    07:00 +27°C° 0 mm 1 m/s 717 mmHg 18%
    08:00 +29°C° 0 mm 1 m/s 718 mmHg 19%
    09:00 +32°C° 0 mm 2 m/s 718 mmHg 21%
    10:00 +34°C° 0 mm 1 m/s 718 mmHg 19%
    11:00 +36°C° 0 mm 1 m/s 717 mmHg 17%
    12:00 +40°C° 0 mm 1 m/s 717 mmHg 15%
    13:00 +40°C° 0 mm 1 m/s 716 mmHg 14%
    14:00 +40°C° 0 mm 1 m/s 715 mmHg 13%
    15:00 +40°C° 0 mm 1 m/s 715 mmHg 13%
    16:00 +37°C° 0 mm 1 m/s 715 mmHg 14%
    17:00 +35°C° 0 mm 1 m/s 715 mmHg 16%
    18:00 +33°C° 0 mm 1 m/s 714 mmHg 18%
    19:00 +32°C° 0 mm 1 m/s 715 mmHg 18%
    20:00 +31°C° 0 mm 1 m/s 715 mmHg 18%
    21:00 +30°C° 0 mm 1 m/s 716 mmHg 18%
    22:00 +30°C° 0 mm 1 m/s 716 mmHg 17%
    23:00 +29°C° 0 mm 1 m/s 716 mmHg 16%

    Poimâine, 19 Decembrie, Marţi

    Timp Temperatura Precipitaţii Vânt Presiune Umiditate
    00:00 +29°C° 0 mm 1 m/s 716 mmHg 15%
    01:00 +29°C° 0 mm 1 m/s 715 mmHg 15%
    02:00 +28°C° 0 mm 1 m/s 715 mmHg 16%
    03:00 +28°C° 0 mm 1 m/s 715 mmHg 16%
    04:00 +27°C° 0 mm 1 m/s 715 mmHg 21%
    05:00 +27°C° 0 mm 1 m/s 715 mmHg 25%
    06:00 +26°C° 0 mm 1 m/s 716 mmHg 30%
    07:00 +28°C° 0 mm 1 m/s 716 mmHg 34%
    08:00 +30°C° 0 mm 2 m/s 717 mmHg 39%
    09:00 +32°C° 0 mm 2 m/s 718 mmHg 44%
    10:00 +35°C° 0 mm 2 m/s 717 mmHg 37%
    11:00 +37°C° 0 mm 2 m/s 717 mmHg 30%
    12:00 +39°C° 0 mm 1 m/s 717 mmHg 23%
    13:00 +39°C° 0 mm 1 m/s 716 mmHg 22%
    14:00 +39°C° 0 mm 1 m/s 715 mmHg 21%
    15:00 +40°C° 0 mm 1 m/s 715 mmHg 20%
    16:00 +37°C° 0 mm 1 m/s 715 mmHg 22%
    17:00 +36°C° 0 mm 1 m/s 715 mmHg 24%
    18:00 +34°C° 0 mm 1 m/s 715 mmHg 25%
    19:00 +33°C° 0 mm 1 m/s 715 mmHg 26%
    20:00 +33°C° 0 mm 1 m/s 716 mmHg 27%
    21:00 +32°C° 0 mm 1 m/s 716 mmHg 28%
    22:00 +32°C° 0 mm 1 m/s 716 mmHg 28%
    23:00 +31°C° 0 mm 1 m/s 716 mmHg 28%

    20 Decembrie, Miercuri

    Timp Temperatura Precipitaţii Vânt Presiune Umiditate
    00:00 +29°C° 0 mm 0 m/s 716 mmHg 29%
    01:00 +28°C° 0 mm 0 m/s 715 mmHg 30%
    02:00 +27°C° 0 mm 0 m/s 715 mmHg 32%
    03:00 +28°C° 0 mm 1 m/s 715 mmHg 34%
    04:00 +27°C° 0 mm 1 m/s 715 mmHg 38%
    05:00 +27°C° 0 mm 1 m/s 715 mmHg 42%
    06:00 +26°C° 0 mm 1 m/s 715 mmHg 46%
    07:00 +28°C° 0 mm 1 m/s 716 mmHg 46%
    08:00 +30°C° 0 mm 2 m/s 717 mmHg 47%
    09:00 +31°C° 0 mm 2 m/s 718 mmHg 47%
    10:00 +34°C° 0 mm 2 m/s 717 mmHg 40%
    11:00 +35°C° 0 mm 1 m/s 717 mmHg 33%
    12:00 +37°C° 0 mm 1 m/s 717 mmHg 27%
    13:00 +37°C° 0 mm 1 m/s 716 mmHg 25%
    14:00 +37°C° 0 mm 1 m/s 716 mmHg 23%
    15:00 +37°C° 0 mm 1 m/s 715 mmHg 22%
    16:00 +36°C° 0 mm 1 m/s 715 mmHg 24%
    17:00 +34°C° 0 mm 1 m/s 715 mmHg 26%
    18:00 +33°C° 0 mm 1 m/s 715 mmHg 28%
    19:00 +32°C° 0 mm 1 m/s 716 mmHg 30%
    20:00 +31°C° 0 mm 1 m/s 716 mmHg 32%
    21:00 +31°C° 0 mm 1 m/s 717 mmHg 34%
    22:00 +30°C° 0 mm 1 m/s 716 mmHg 35%
    23:00 +29°C° 0 mm 1 m/s 716 mmHg 36%

    21 Decembrie, Joi

    Timp Temperatura Precipitaţii Vânt Presiune Umiditate
    00:00 +29°C° 0 mm 1 m/s 716 mmHg 38%
    01:00 +28°C° 0 mm 1 m/s 716 mmHg 38%
    02:00 +28°C° 0 mm 1 m/s 716 mmHg 38%
    03:00 +27°C° 0 mm 1 m/s 715 mmHg 38%
    04:00 +27°C° 0 mm 1 m/s 716 mmHg 37%
    05:00 +26°C° 0 mm 1 m/s 716 mmHg 35%
    06:00 +25°C° 0 mm 1 m/s 716 mmHg 33%
    07:00 +28°C° 0 mm 1 m/s 717 mmHg 27%
    08:00 +30°C° 0 mm 1 m/s 718 mmHg 21%
    09:00 +33°C° 0 mm 1 m/s 719 mmHg 15%
    10:00 +34°C° 0 mm 1 m/s 718 mmHg 12%
    11:00 +37°C° 0 mm 2 m/s 718 mmHg 10%
    12:00 +39°C° 0 mm 2 m/s 718 mmHg 8%
    13:00 +39°C° 0 mm 2 m/s 717 mmHg 8%
    14:00 +39°C° 0 mm 2 m/s 716 mmHg 8%
    15:00 +39°C° 0 mm 2 m/s 716 mmHg 8%
    16:00 +38°C° 0 mm 2 m/s 716 mmHg 9%
    17:00 +35°C° 0 mm 1 m/s 716 mmHg 10%
    18:00 +33°C° 0 mm 1 m/s 716 mmHg 11%
    19:00 +32°C° 0 mm 1 m/s 716 mmHg 12%
    20:00 +31°C° 0 mm 1 m/s 717 mmHg 13%
    21:00 +30°C° 0 mm 1 m/s 717 mmHg 13%
    22:00 +29°C° 0 mm 1 m/s 717 mmHg 14%
    23:00 +28°C° 0 mm 1 m/s 717 mmHg 14%

    22 Decembrie, Vineri

    Timp Temperatura Precipitaţii Vânt Presiune Umiditate
    00:00 +28°C° 0 mm 1 m/s 717 mmHg 14%
    01:00 +27°C° 0 mm 2 m/s 717 mmHg 14%
    02:00 +26°C° 0 mm 2 m/s 717 mmHg 14%
    03:00 +26°C° 0 mm 2 m/s 716 mmHg 14%
    04:00 +25°C° 0 mm 2 m/s 717 mmHg 14%
    05:00 +25°C° 0 mm 2 m/s 717 mmHg 15%
    06:00 +24°C° 0 mm 1 m/s 717 mmHg 15%
    07:00 +26°C° 0 mm 2 m/s 718 mmHg 13%
    08:00 +28°C° 0 mm 3 m/s 718 mmHg 12%
    09:00 +31°C° 0 mm 3 m/s 719 mmHg 11%
    10:00 +34°C° 0 mm 3 m/s 718 mmHg 10%
    11:00 +36°C° 0 mm 3 m/s 718 mmHg 9%
    12:00 +38°C° 0 mm 3 m/s 718 mmHg 8%
    13:00 +39°C° 0 mm 3 m/s 717 mmHg 9%
    14:00 +39°C° 0 mm 3 m/s 716 mmHg 9%
    15:00 +39°C° 0 mm 3 m/s 715 mmHg 9%
    16:00 +37°C° 0 mm 2 m/s 715 mmHg 10%
    17:00 +36°C° 0 mm 2 m/s 715 mmHg 12%
    18:00 +33°C° 0 mm 1 m/s 715 mmHg 13%
    19:00 +32°C° 0 mm 1 m/s 716 mmHg 14%
    20:00 +31°C° 0 mm 1 m/s 716 mmHg 14%
    21:00 +30°C° 0 mm 1 m/s 717 mmHg 15%
    22:00 +29°C° 0 mm 1 m/s 716 mmHg 15%
    23:00 +28°C° 0 mm 1 m/s 716 mmHg 15%
    Arată mai mult